{"data":{"norad_id":64778,"epoch":"2026-05-24T22:31:57.084096Z","epoch_age_seconds":70416,"freshness":"FRESH","line1":"1 64778U 25147Z   26144.93885514 -.00013115  00000+0 -43141-3 0  9999","line2":"2 64778  53.1599 225.7011 0003462  92.2612 267.8785 15.30192905 50778","mean_motion":15.30192905,"eccentricity":0.0003462,"inclination_deg":53.1599,"raan_deg":225.7011,"arg_perigee_deg":92.2612,"mean_anomaly_deg":267.8785,"bstar":-0.00043141,"rev_number":5077,"period_min":94.105782041905,"perigee_km":472.8636160718,"apogee_km":477.60889171279,"semimajor_km":6853.3732538923,"source":"CELESTRAK","updated_at":"2026-05-25T13:38:20.560136Z"}}